Weather History for Shenandoah, IA

Change the Weather History Date:

Thursday, January 10, 2013

  Actual Average Record
Temperature  
Mean Temperature 40 °F -  
Max Temperature 46 °F 29 °F 55 °F (2007)
Min Temperature 33 °F 9 °F -22 °F (1982)
Degree Days  
Heating Degree Days 26    
Moisture  
Dew Point 32 °F    
Average Humidity 72    
Maximum Humidity 93    
Minimum Humidity 43    
Precipitation  
Precipitation 0.22 in - - ()
Sea Level Pressure  
Sea Level Pressure 30.01 in    
Wind  
Wind Speed 5 mph (SE)    
Max Wind Speed 17 mph    
Max Gust Speed 20 mph    
Visibility 7 miles    
Events Fog , Rain    
Averages and records for this station are not official NWS values.
T = Trace of Precipitation, MM = Missing Value Source: NWS Daily Summary

Daily Weather History Graph

Daily Weather History Graph

Search for Another Location

Airport:

Trip Planner

Search our weather history database for the weather conditions in past years. The results will help you decide how hot, cold, wet, or windy it might be!

Date:

Astronomy

Jan. 10, 2013 Rise Set
Actual Time 7:45 AM CST 5:13 PM CST
Civil Twilight 7:14 AM CST 5:44 PM CST
Nautical Twilight 6:40 AM CST 6:18 PM CST
Astronomical Twilight 6:07 AM CST 6:51 PM CST
Moon 6:25 AM CST (1/10) 4:22 PM CST (1/10)
Length of Visible Light 10h 29m
Length of Day
9h 28m
Waning Crescent, 2% of the Moon is Illuminated
Jan 10
Waning Crescent
Jan 11
New
Jan 18
First Quarter
Jan 26
Full
Feb 3
Last Quarter

Hourly Weather History & Observations

Time (CST) Temp. Windchill Dew Point Humidity Pressure Visibility Wind Dir Wind Speed Gust Speed Precip Events Conditions
12:15 AM 37.4 °F 33.8 °F 26.6 °F 65% 30.36 in 10.0 mi SSE 4.6 mph - N/A   Scattered Clouds
12:35 AM 37.4 °F - 26.6 °F 65% 30.36 in 10.0 mi Calm Calm - N/A   Scattered Clouds
12:55 AM 35.6 °F - 26.6 °F 70% 30.35 in 10.0 mi Calm Calm - N/A   Scattered Clouds
2:15 AM 33.8 °F - 26.6 °F 75% 30.33 in 10.0 mi Calm Calm - N/A   Scattered Clouds
2:35 AM 33.8 °F 29.6 °F 26.6 °F 75% 30.33 in 10.0 mi SE 4.6 mph - N/A   Scattered Clouds
2:55 AM 37.4 °F 31.4 °F 28.4 °F 70% 30.31 in 10.0 mi SE 8.1 mph - N/A   Scattered Clouds
3:15 AM 37.4 °F 33.8 °F 28.4 °F 70% 30.31 in 10.0 mi East 4.6 mph - N/A   Scattered Clouds
3:35 AM 37.4 °F - 28.4 °F 70% 30.30 in 10.0 mi Calm Calm - N/A   Scattered Clouds
3:55 AM 37.4 °F 34.9 °F 26.6 °F 65% 30.30 in 10.0 mi East 3.5 mph - N/A   Scattered Clouds
4:15 AM 37.4 °F 34.9 °F 26.6 °F 65% 30.28 in 10.0 mi East 3.5 mph - N/A   Clear
4:35 AM 37.4 °F - 26.6 °F 65% 30.27 in 10.0 mi Calm Calm - N/A   Scattered Clouds
4:55 AM 37.4 °F - 26.6 °F 65% 30.26 in 10.0 mi Calm Calm - N/A   Scattered Clouds
5:15 AM 37.4 °F 33.8 °F 26.6 °F 65% 30.25 in 10.0 mi ESE 4.6 mph - N/A   Scattered Clouds
5:35 AM 39.2 °F 35.0 °F 26.6 °F 61% 30.24 in 10.0 mi ESE 5.8 mph - N/A   Scattered Clouds
5:55 AM 39.2 °F 35.0 °F 26.6 °F 61% 30.22 in 10.0 mi East 5.8 mph - N/A   Scattered Clouds
6:35 AM 39.2 °F 35.9 °F 24.8 °F 56% 30.20 in 10.0 mi ESE 4.6 mph - N/A   Scattered Clouds
6:55 AM 39.2 °F 35.9 °F 24.8 °F 56% 30.19 in 10.0 mi East 4.6 mph - N/A   Scattered Clouds
7:15 AM 41.0 °F 37.1 °F 24.8 °F 53% 30.19 in 10.0 mi ESE 5.8 mph - N/A   Scattered Clouds
7:35 AM 41.0 °F 35.2 °F 24.8 °F 53% 30.18 in 10.0 mi SE 9.2 mph - N/A   Mostly Cloudy
7:55 AM 42.8 °F 38.0 °F 23.0 °F 46% 30.18 in 10.0 mi SE 8.1 mph - N/A   Scattered Clouds
8:35 AM 44.6 °F 38.8 °F 23.0 °F 43% 30.17 in 10.0 mi SE 11.5 mph - N/A   Overcast
9:15 AM 42.8 °F 37.0 °F 26.6 °F 53% 30.14 in 10.0 mi SE 10.4 mph - N/A   Light Drizzle
9:35 AM 42.8 °F 37.0 °F 28.4 °F 57% 30.11 in 10.0 mi SE 10.4 mph - N/A   Overcast
9:55 AM 44.6 °F 38.8 °F 26.6 °F 49% 30.10 in 10.0 mi SE 11.5 mph - N/A   Overcast
10:15 AM 44.6 °F 37.4 °F 26.6 °F 49% 30.09 in 10.0 mi SE 16.1 mph - N/A   Overcast
10:35 AM 44.6 °F 38.8 °F 28.4 °F 53% 30.07 in 10.0 mi SE 11.5 mph - N/A   Overcast
10:55 AM 44.6 °F 39.7 °F 28.4 °F 53% 30.05 in 10.0 mi SE 9.2 mph - N/A   Overcast
11:15 AM 44.6 °F 39.7 °F 28.4 °F 53% 30.03 in 10.0 mi SE 9.2 mph - N/A   Overcast
11:35 AM 46.4 °F 39.5 °F 28.4 °F 50% 30.01 in 10.0 mi SE 17.3 mph - N/A   Overcast
11:55 AM 46.4 °F 40.7 °F 30.2 °F 53% 29.98 in 10.0 mi SE 12.7 mph - N/A   Overcast
12:15 PM 44.6 °F 38.4 °F 30.2 °F 57% 29.98 in 10.0 mi SE 12.7 mph - N/A   Overcast
12:35 PM 44.6 °F 38.8 °F 30.2 °F 57% 29.96 in 10.0 mi SE 11.5 mph 19.6 mph N/A   Overcast
12:55 PM 42.8 °F 37.0 °F 35.6 °F 76% 29.94 in 2.5 mi SE 10.4 mph - N/A   Drizzle
1:35 PM 42.8 °F 38.0 °F 35.6 °F 76% 29.93 in 2.0 mi SSE 8.1 mph - 0.03 in Rain Heavy Rain
1:55 PM 41.0 °F 35.8 °F 35.6 °F 81% 29.93 in 2.0 mi SSE 8.1 mph - 0.05 in Rain Rain
2:15 PM 41.0 °F 38.0 °F 35.6 °F 81% 29.91 in 2.0 mi SE 4.6 mph - 0.02 in   Heavy Drizzle
2:35 PM 41.0 °F 36.4 °F 37.4 °F 87% 29.90 in 3.0 mi SE 6.9 mph - 0.04 in   Light Drizzle
2:55 PM 41.0 °F 38.0 °F 35.6 °F 81% 29.90 in 3.0 mi SE 4.6 mph - 0.16 in Rain Light Rain
3:15 PM 42.8 °F 39.3 °F 37.4 °F 81% 29.90 in 10.0 mi SE 5.8 mph - N/A   Overcast
3:35 PM 42.8 °F 38.6 °F 37.4 °F 81% 29.89 in 10.0 mi SE 6.9 mph - N/A Rain Rain
3:55 PM 42.8 °F 38.6 °F 37.4 °F 81% 29.88 in 7.0 mi SE 6.9 mph - N/A   Overcast
4:15 PM 42.8 °F 39.3 °F 37.4 °F 81% 29.88 in 7.0 mi SSE 5.8 mph - N/A   Overcast
4:35 PM 42.8 °F 39.3 °F 37.4 °F 81% 29.88 in 7.0 mi SSE 5.8 mph - N/A   Overcast
4:55 PM 42.8 °F 39.3 °F 37.4 °F 81% 29.86 in 10.0 mi SSE 5.8 mph - N/A   Overcast
5:15 PM 42.8 °F 39.3 °F 37.4 °F 81% 29.85 in 10.0 mi SE 5.8 mph - N/A   Overcast
5:35 PM 41.0 °F 36.4 °F 37.4 °F 87% 29.85 in 10.0 mi SE 6.9 mph - N/A   Overcast
5:55 PM 41.0 °F 35.8 °F 37.4 °F 87% 29.83 in 10.0 mi SE 8.1 mph - N/A   Overcast
6:15 PM 41.0 °F 38.0 °F 37.4 °F 87% 29.83 in 10.0 mi ESE 4.6 mph - N/A   Overcast
6:35 PM 41.0 °F 38.0 °F 37.4 °F 87% 29.80 in 7.0 mi East 4.6 mph - N/A   Overcast
6:55 PM 41.0 °F 35.8 °F 35.6 °F 81% 29.81 in 4.0 mi SSE 8.1 mph - N/A   Haze
7:15 PM 41.0 °F 36.4 °F 37.4 °F 87% 29.81 in 3.0 mi SSE 6.9 mph - N/A   Overcast
7:35 PM 41.0 °F 36.4 °F 37.4 °F 87% 29.80 in 4.0 mi SSE 6.9 mph - N/A   Overcast
7:55 PM 41.0 °F 38.0 °F 37.4 °F 87% 29.79 in 5.0 mi SSE 4.6 mph - N/A   Overcast
8:15 PM 41.0 °F 37.1 °F 37.4 °F 87% 29.79 in 5.0 mi South 5.8 mph - N/A   Overcast
8:35 PM 41.0 °F 37.1 °F 37.4 °F 87% 29.79 in 4.0 mi South 5.8 mph - N/A   Overcast
8:55 PM 41.0 °F - 37.4 °F 87% 29.78 in 1.2 mi Calm Calm - N/A   Overcast
9:15 PM 41.0 °F - 37.4 °F 87% 29.77 in 0.8 mi Calm Calm - N/A   Overcast
9:35 PM 41.0 °F - 37.4 °F 87% 29.76 in 0.5 mi Calm Calm - N/A Fog Fog
9:55 PM 39.2 °F - 35.6 °F 87% 29.76 in 0.8 mi Calm Calm - N/A   Overcast
10:15 PM 39.2 °F - 37.4 °F 93% 29.75 in 0.8 mi Calm Calm - 0.01 in   Overcast
10:35 PM 39.2 °F - 35.6 °F 87% 29.75 in 0.5 mi Calm Calm - 0.01 in Fog Fog
10:55 PM 39.2 °F - 35.6 °F 87% 29.75 in 0.5 mi Calm Calm - 0.01 in Fog Fog
11:15 PM 39.2 °F - 35.6 °F 87% 29.74 in 0.5 mi Calm Calm - N/A Fog Fog
11:55 PM 41.0 °F - 37.4 °F 87% 29.73 in 3.0 mi Calm Calm - N/A   Overcast